PDT6280 KCLT-KITH

Flight info

Callsign PDT6280
Flight time 1h 15m
Altitude 33000
Route KRITR6 FILDS DCT MONAT DCT RAMAY DCT DGRAF DCT CFB DCT
Aircraft E145/M-SABDFGRW/S

Departure

Time 2026-05-07 23:09
Airport Charlotte Douglas International Airport (KCLT)

Arrival

Time 2026-05-08 00:25
Airport Ithaca Tompkins Regional Airport (KITH)
Time Latitude Longitude Altitude Speed Heading
2026-05-07 22:54 35.22591 -80.94103 756 ft 0 kts 136°
2026-05-07 22:55 35.22583 -80.94094 756 ft 0 kts 136°
2026-05-07 22:56 35.22582 -80.94094 756 ft 0 kts 136°
2026-05-07 22:56 35.22588 -80.94101 756 ft 2 kts 136°
2026-05-07 22:56 35.22597 -80.94111 756 ft 0 kts 136°
2026-05-07 22:56 35.22605 -80.94123 756 ft 2 kts 109°
2026-05-07 22:57 35.22606 -80.94141 756 ft 2 kts 78°
2026-05-07 22:57 35.22600 -80.94157 756 ft 2 kts 47°
2026-05-07 22:57 35.22595 -80.94163 756 ft 0 kts 37°
2026-05-07 23:00 35.22619 -80.94140 756 ft 9 kts 39°
2026-05-07 23:00 35.22660 -80.94084 756 ft 11 kts 82°
2026-05-07 23:01 35.22666 -80.93984 756 ft 11 kts 85°
2026-05-07 23:01 35.22651 -80.93883 756 ft 10 kts 125°
2026-05-07 23:01 35.22583 -80.93861 756 ft 5 kts 175°
2026-05-07 23:01 35.22538 -80.93858 756 ft 7 kts 175°
2026-05-07 23:02 35.22500 -80.93813 756 ft 8 kts 92°
2026-05-07 23:02 35.22493 -80.93752 756 ft 5 kts 154°
2026-05-07 23:02 35.22440 -80.93747 756 ft 11 kts 175°
2026-05-07 23:02 35.22330 -80.93738 756 ft 17 kts 175°
2026-05-07 23:03 35.22206 -80.93726 756 ft 18 kts 176°
2026-05-07 23:03 35.22068 -80.93714 756 ft 21 kts 176°
2026-05-07 23:03 35.21912 -80.93703 756 ft 22 kts 176°
2026-05-07 23:03 35.21753 -80.93688 756 ft 17 kts 175°
2026-05-07 23:04 35.21659 -80.93680 756 ft 13 kts 177°
2026-05-07 23:04 35.21560 -80.93671 756 ft 15 kts 176°
2026-05-07 23:04 35.21450 -80.93662 756 ft 16 kts 175°
2026-05-07 23:04 35.21332 -80.93652 756 ft 17 kts 175°
2026-05-07 23:05 35.21201 -80.93641 756 ft 19 kts 176°
2026-05-07 23:05 35.21061 -80.93629 756 ft 20 kts 176°
2026-05-07 23:05 35.20912 -80.93617 756 ft 22 kts 176°
2026-05-07 23:05 35.20755 -80.93603 756 ft 23 kts 175°
2026-05-07 23:06 35.20589 -80.93588 756 ft 24 kts 176°
2026-05-07 23:06 35.20423 -80.93574 756 ft 19 kts 175°
2026-05-07 23:06 35.20295 -80.93564 756 ft 16 kts 176°
2026-05-07 23:06 35.20182 -80.93555 756 ft 14 kts 177°
2026-05-07 23:07 35.20114 -80.93531 756 ft 6 kts 134°
2026-05-07 23:07 35.20110 -80.93523 756 ft 0 kts 117°
2026-05-07 23:07 35.20108 -80.93517 756 ft 4 kts 110°
2026-05-07 23:08 35.20105 -80.93470 756 ft 4 kts 90°
2026-05-07 23:08 35.20107 -80.93431 756 ft 5 kts 85°
2026-05-07 23:08 35.20129 -80.93416 756 ft 0 kts 353°
2026-05-07 23:08 35.20252 -80.93425 756 ft 51 kts 355°
2026-05-07 23:09 35.20844 -80.93475 756 ft 116 kts 355°
2026-05-07 23:09 35.21778 -80.93560 981 ft 143 kts 358°
2026-05-07 23:09 35.22751 -80.93622 1706 ft 138 kts
2026-05-07 23:09 35.23631 -80.93335 2412 ft 133 kts 16°
2026-05-07 23:10 35.24498 -80.93003 3030 ft 134 kts 16°
2026-05-07 23:10 35.25375 -80.92632 3617 ft 137 kts 16°
2026-05-07 23:10 35.26354 -80.92194 3853 ft 169 kts 16°
2026-05-07 23:10 35.27626 -80.91660 3881 ft 216 kts 12°
2026-05-07 23:11 35.29203 -80.91731 4077 ft 241 kts 343°
2026-05-07 23:11 35.30897 -80.92024 4717 ft 249 kts 354°
2026-05-07 23:11 35.32621 -80.92097 5421 ft 253 kts 355°
2026-05-07 23:11 35.34404 -80.92129 6068 ft 260 kts 355°
2026-05-07 23:12 35.36231 -80.92149 6710 ft 266 kts 354°
2026-05-07 23:12 35.38079 -80.92165 7448 ft 267 kts 353°
2026-05-07 23:12 35.39943 -80.92181 8112 ft 270 kts 353°
2026-05-07 23:12 35.41817 -80.92198 8715 ft 276 kts 353°
2026-05-07 23:13 35.43763 -80.92214 9377 ft 279 kts 352°
2026-05-07 23:13 35.45708 -80.92232 9969 ft 283 kts 352°
2026-05-07 23:13 35.47671 -80.92248 10541 ft 288 kts 351°
2026-05-07 23:13 35.49735 -80.92268 10935 ft 300 kts 352°
2026-05-07 23:14 35.51848 -80.92285 11399 ft 308 kts 352°
2026-05-07 23:14 35.54012 -80.92304 11831 ft 317 kts 352°
2026-05-07 23:14 35.56239 -80.92323 12262 ft 325 kts 352°
2026-05-07 23:14 35.58510 -80.92342 12784 ft 328 kts 351°
2026-05-07 23:15 35.60823 -80.92361 13390 ft 329 kts 351°
2026-05-07 23:15 35.63085 -80.92381 13919 ft 331 kts 351°
2026-05-07 23:15 35.65411 -80.92400 14496 ft 331 kts 350°
2026-05-07 23:15 35.67724 -80.92422 14974 ft 335 kts 350°
2026-05-07 23:16 35.70061 -80.92230 15441 ft 347 kts 360°
2026-05-07 23:16 35.72451 -80.91740 15957 ft 348 kts 359°
2026-05-07 23:16 35.74861 -80.91261 16422 ft 350 kts 358°
2026-05-07 23:16 35.77239 -80.90790 16920 ft 352 kts 358°
2026-05-07 23:17 35.79689 -80.90303 17358 ft 354 kts 358°
2026-05-07 23:17 35.82119 -80.89820 17822 ft 355 kts 358°
2026-05-07 23:17 35.84562 -80.89335 18316 ft 355 kts 357°
2026-05-07 23:17 35.86993 -80.88854 18773 ft 357 kts 357°
2026-05-07 23:18 35.89422 -80.88369 19256 ft 356 kts 356°
2026-05-07 23:18 35.91853 -80.87884 19822 ft 353 kts 356°
2026-05-07 23:18 35.94294 -80.87401 20271 ft 355 kts 356°
2026-05-07 23:18 35.96698 -80.86920 20829 ft 352 kts 356°
2026-05-07 23:19 35.99143 -80.86433 21228 ft 354 kts 355°
2026-05-07 23:19 36.01585 -80.85947 21644 ft 355 kts 355°
2026-05-07 23:19 36.04007 -80.85463 22096 ft 354 kts 355°
2026-05-07 23:19 36.06428 -80.84980 22551 ft 354 kts 354°
2026-05-07 23:20 36.08867 -80.84492 23077 ft 351 kts 354°
2026-05-07 23:20 36.11277 -80.84011 23454 ft 353 kts 354°
2026-05-07 23:20 36.13703 -80.83524 23936 ft 351 kts 353°
2026-05-07 23:20 36.16086 -80.83045 24462 ft 347 kts 352°
2026-05-07 23:21 36.18480 -80.82571 24761 ft 351 kts 352°
2026-05-07 23:21 36.20895 -80.82082 25297 ft 348 kts 351°
2026-05-07 23:21 36.23284 -80.81606 25683 ft 349 kts 351°
2026-05-07 23:21 36.25654 -80.81130 26099 ft 348 kts 351°
2026-05-07 23:22 36.28046 -80.80649 26572 ft 346 kts 350°
2026-05-07 23:22 36.30381 -80.80177 27093 ft 341 kts 349°
2026-05-07 23:22 36.32722 -80.79708 27506 ft 340 kts 348°
2026-05-07 23:22 36.35075 -80.79237 27834 ft 342 kts 348°
2026-05-07 23:23 36.37428 -80.78764 28202 ft 343 kts 348°
2026-05-07 23:23 36.39755 -80.78293 28677 ft 339 kts 347°
2026-05-07 23:23 36.42066 -80.77824 29184 ft 333 kts 347°
2026-05-07 23:23 36.44352 -80.77365 29620 ft 331 kts 346°
2026-05-07 23:24 36.46658 -80.76907 29792 ft 338 kts 347°
2026-05-07 23:24 36.48995 -80.76430 30229 ft 335 kts 347°
2026-05-07 23:24 36.51262 -80.75968 30740 ft 328 kts 345°
2026-05-07 23:24 36.53516 -80.75518 30988 ft 332 kts 345°
2026-05-07 23:25 36.55833 -80.74878 31201 ft 356 kts 356°
2026-05-07 23:25 36.58180 -80.73633 31621 ft 379 kts
2026-05-07 23:25 36.60457 -80.71837 31863 ft 403 kts 19°
2026-05-07 23:25 36.62609 -80.69432 32232 ft 423 kts 31°
2026-05-07 23:26 36.64473 -80.66544 32591 ft 440 kts 43°
2026-05-07 23:26 36.66018 -80.63174 32903 ft 453 kts 56°
2026-05-07 23:26 36.67169 -80.59512 32975 ft 469 kts 64°
2026-05-07 23:26 36.68411 -80.55736 32988 ft 468 kts 52°
2026-05-07 23:27 36.71888 -80.48878 32962 ft 477 kts 45°
2026-05-07 23:27 36.73690 -80.45404 32977 ft 488 kts 46°
2026-05-07 23:27 36.75546 -80.41801 32962 ft 498 kts 46°
2026-05-07 23:28 36.79322 -80.34448 32953 ft 516 kts 47°
2026-05-07 23:28 36.83244 -80.26790 32924 ft 530 kts 48°
2026-05-07 23:29 36.87267 -80.18915 32945 ft 542 kts 48°
2026-05-07 23:29 36.91336 -80.10933 32948 ft 554 kts 48°
2026-05-07 23:30 36.95498 -80.02747 32951 ft 565 kts 48°
2026-05-07 23:30 36.99738 -79.94390 32947 ft 574 kts 48°
2026-05-07 23:31 37.03977 -79.86007 32938 ft 567 kts 48°
2026-05-07 23:31 37.08158 -79.77728 32949 ft 561 kts 48°
2026-05-07 23:32 37.12330 -79.69471 32963 ft 557 kts 46°
2026-05-07 23:32 37.14635 -79.65663 32932 ft 542 kts 38°
2026-05-07 23:32 37.17195 -79.62365 32896 ft 526 kts 30°
2026-05-07 23:33 37.19962 -79.59489 32932 ft 511 kts 20°
2026-05-07 23:33 37.22931 -79.57156 32944 ft 498 kts 13°
2026-05-07 23:33 37.29053 -79.52702 32940 ft 515 kts 16°
2026-05-07 23:34 37.35208 -79.48006 32964 ft 523 kts 17°
2026-05-07 23:34 37.41440 -79.43233 32937 ft 531 kts 18°
2026-05-07 23:35 37.47777 -79.38369 32934 ft 536 kts 18°
2026-05-07 23:35 37.54121 -79.33488 32919 ft 532 kts 19°
2026-05-07 23:36 37.57256 -79.31067 32906 ft 518 kts 18°
2026-05-07 23:36 37.60301 -79.28719 32909 ft 506 kts 17°
2026-05-07 23:36 37.66216 -79.24154 32893 ft 492 kts 17°
2026-05-07 23:37 37.71981 -79.19696 32880 ft 480 kts 17°
2026-05-07 23:37 37.77611 -79.15337 32938 ft 475 kts 17°
2026-05-07 23:38 37.83309 -79.10915 32936 ft 482 kts 18°
2026-05-07 23:38 37.89066 -79.06438 32934 ft 492 kts 18°
2026-05-07 23:39 37.94928 -79.01868 32937 ft 496 kts 18°
2026-05-07 23:39 38.00798 -78.97284 32917 ft 500 kts 19°
2026-05-07 23:40 38.06730 -78.92643 32911 ft 503 kts 19°
2026-05-07 23:40 38.12736 -78.87936 32908 ft 506 kts 19°
2026-05-07 23:41 38.18724 -78.83232 32913 ft 508 kts 19°
2026-05-07 23:41 38.24704 -78.78526 32910 ft 507 kts 19°
2026-05-07 23:42 38.30673 -78.73821 32922 ft 502 kts 19°
2026-05-07 23:42 38.36587 -78.69149 32903 ft 499 kts 19°
2026-05-07 23:43 38.42421 -78.64532 32915 ft 496 kts 19°
2026-05-07 23:43 38.48254 -78.59906 32909 ft 492 kts 19°
2026-05-07 23:44 38.54075 -78.55282 32896 ft 494 kts 19°
2026-05-07 23:44 38.59905 -78.50642 32882 ft 498 kts 19°
2026-05-07 23:45 38.65797 -78.45941 32887 ft 501 kts 19°
2026-05-07 23:45 38.71771 -78.41167 32878 ft 505 kts 19°
2026-05-07 23:46 38.77734 -78.36393 32884 ft 510 kts 19°
2026-05-07 23:46 38.83749 -78.31567 32855 ft 518 kts 20°
2026-05-07 23:47 38.89912 -78.26611 32833 ft 524 kts 20°
2026-05-07 23:47 38.96046 -78.21664 32845 ft 514 kts 20°
2026-05-07 23:48 38.99077 -78.19478 32835 ft 492 kts 15°
2026-05-07 23:48 39.02079 -78.17428 32873 ft 488 kts 15°
2026-05-07 23:48 39.08032 -78.13274 32873 ft 491 kts 16°
2026-05-07 23:49 39.14070 -78.09037 32870 ft 497 kts 16°
2026-05-07 23:49 39.20226 -78.04709 32876 ft 507 kts 17°
2026-05-07 23:50 39.26439 -78.00328 32862 ft 509 kts 17°
2026-05-07 23:50 39.32580 -77.95988 32859 ft 498 kts 16°
2026-05-07 23:51 39.38576 -77.91746 32857 ft 488 kts 16°
2026-05-07 23:51 39.44482 -77.87560 32870 ft 486 kts 16°
2026-05-07 23:52 39.50421 -77.83342 32864 ft 484 kts 16°
2026-05-07 23:52 39.56298 -77.79160 32871 ft 485 kts 16°
2026-05-07 23:53 39.62225 -77.74934 32870 ft 488 kts 17°
2026-05-07 23:53 39.68145 -77.70703 32873 ft 490 kts 16°
2026-05-07 23:54 39.74158 -77.66399 32872 ft 494 kts 17°
2026-05-07 23:54 39.80176 -77.62080 32873 ft 498 kts 17°
2026-05-07 23:55 39.86244 -77.57718 32875 ft 501 kts 17°
2026-05-07 23:55 39.92350 -77.53319 32881 ft 503 kts 17°
2026-05-07 23:56 39.98473 -77.48898 32888 ft 505 kts 17°
2026-05-07 23:56 40.04625 -77.44450 32902 ft 509 kts 18°
2026-05-07 23:57 40.10814 -77.39962 32872 ft 510 kts 18°
2026-05-07 23:57 40.17027 -77.35450 32891 ft 512 kts 18°
2026-05-07 23:58 40.23293 -77.30888 32853 ft 512 kts 18°
2026-05-07 23:58 40.29494 -77.26365 32864 ft 509 kts 19°
2026-05-07 23:59 40.35633 -77.21876 32879 ft 503 kts 18°
2026-05-07 23:59 40.41702 -77.17431 32859 ft 499 kts 19°
2026-05-08 00:00 40.47764 -77.12981 32850 ft 496 kts 19°
2026-05-08 00:00 40.53747 -77.08581 32856 ft 495 kts 19°
2026-05-08 00:01 40.59763 -77.04147 32867 ft 495 kts 19°
2026-05-08 00:01 40.65733 -76.99736 32859 ft 495 kts 19°
2026-05-08 00:02 40.71745 -76.95286 32844 ft 496 kts 19°
2026-05-08 00:02 40.77757 -76.90827 32865 ft 495 kts 19°
2026-05-08 00:03 40.83659 -76.86438 32785 ft 484 kts 18°
2026-05-08 00:03 40.89506 -76.82084 32609 ft 479 kts 18°
2026-05-08 00:04 40.92383 -76.79940 32211 ft 483 kts 18°
2026-05-08 00:04 40.95313 -76.77751 31906 ft 481 kts 19°
2026-05-08 00:04 40.98202 -76.75592 31445 ft 481 kts 19°
2026-05-08 00:04 41.01098 -76.73424 30993 ft 481 kts 18°
2026-05-08 00:05 41.04023 -76.71233 30530 ft 481 kts 18°
2026-05-08 00:05 41.06941 -76.69045 30060 ft 480 kts 18°
2026-05-08 00:05 41.09817 -76.66888 29584 ft 480 kts 18°
2026-05-08 00:05 41.12735 -76.64695 29092 ft 480 kts 19°
2026-05-08 00:06 41.15645 -76.62507 28616 ft 479 kts 19°
2026-05-08 00:06 41.18523 -76.60339 28127 ft 479 kts 19°
2026-05-08 00:06 41.21434 -76.58145 27650 ft 478 kts 19°
2026-05-08 00:06 41.24304 -76.55951 27166 ft 474 kts 17°
2026-05-08 00:07 41.27259 -76.54250 26734 ft 460 kts
2026-05-08 00:07 41.30289 -76.52977 26212 ft 457 kts
2026-05-08 00:07 41.33297 -76.51647 25772 ft 457 kts
2026-05-08 00:07 41.36327 -76.50279 25279 ft 457 kts
2026-05-08 00:08 41.39305 -76.48925 24829 ft 456 kts
2026-05-08 00:08 41.42312 -76.47555 24335 ft 455 kts
2026-05-08 00:08 41.45279 -76.46201 23866 ft 454 kts
2026-05-08 00:08 41.48279 -76.44831 23458 ft 453 kts
2026-05-08 00:09 41.51220 -76.43487 22994 ft 451 kts
2026-05-08 00:09 41.54184 -76.42130 22509 ft 450 kts
2026-05-08 00:09 41.57121 -76.40784 22072 ft 448 kts 10°
2026-05-08 00:09 41.60089 -76.39424 21608 ft 445 kts 10°
2026-05-08 00:10 41.62990 -76.38092 21164 ft 443 kts 11°
2026-05-08 00:10 41.65911 -76.36750 20702 ft 440 kts 11°
2026-05-08 00:10 41.68793 -76.35425 20226 ft 438 kts 11°
2026-05-08 00:10 41.71651 -76.34109 19784 ft 434 kts 13°
2026-05-08 00:11 41.74493 -76.32800 19270 ft 431 kts 13°
2026-05-08 00:11 41.77321 -76.31495 18739 ft 428 kts 13°
2026-05-08 00:11 41.80121 -76.30203 18242 ft 425 kts 13°
2026-05-08 00:11 41.82936 -76.28902 17758 ft 420 kts 13°
2026-05-08 00:12 41.85660 -76.27642 17239 ft 416 kts 13°
2026-05-08 00:12 41.88363 -76.26388 16633 ft 402 kts 13°
2026-05-08 00:12 41.90964 -76.25184 15884 ft 394 kts 13°
2026-05-08 00:12 41.93541 -76.23990 15070 ft 387 kts 14°
2026-05-08 00:13 41.96051 -76.22825 14315 ft 380 kts 13°
2026-05-08 00:13 41.98351 -76.21757 13582 ft 374 kts 13°
2026-05-08 00:13 41.99020 -76.21446 13354 ft 371 kts 13°
2026-05-08 00:13 42.01389 -76.20344 12570 ft 359 kts 14°
2026-05-08 00:14 42.02653 -76.19753 12111 ft 347 kts 13°
2026-05-08 00:14 42.04862 -76.18724 11331 ft 326 kts 13°
2026-05-08 00:14 42.06920 -76.17767 10557 ft 312 kts 13°
2026-05-08 00:14 42.08920 -76.16836 9771 ft 300 kts 14°
2026-05-08 00:15 42.10886 -76.15919 8992 ft 291 kts 14°
2026-05-08 00:15 42.12740 -76.15052 8348 ft 273 kts 14°
2026-05-08 00:15 42.14408 -76.14269 8259 ft 236 kts 13°
2026-05-08 00:15 42.15887 -76.13882 8256 ft 193 kts 345°
2026-05-08 00:16 42.17069 -76.14243 8236 ft 165 kts 337°
2026-05-08 00:16 42.18137 -76.14646 8056 ft 152 kts 335°
2026-05-08 00:16 42.19164 -76.15060 7585 ft 163 kts 336°
2026-05-08 00:16 42.20320 -76.15536 6754 ft 184 kts 339°
2026-05-08 00:17 42.21562 -76.16040 6540 ft 189 kts 339°
2026-05-08 00:17 42.22839 -76.16564 6297 ft 192 kts 339°
2026-05-08 00:17 42.24131 -76.17095 6051 ft 194 kts 339°
2026-05-08 00:17 42.25417 -76.17625 5803 ft 195 kts 340°
2026-05-08 00:18 42.26716 -76.18160 5643 ft 190 kts 340°
2026-05-08 00:18 42.27959 -76.18671 5534 ft 185 kts 340°
2026-05-08 00:18 42.29187 -76.19179 5421 ft 181 kts 340°
2026-05-08 00:18 42.30374 -76.19669 5331 ft 180 kts 340°
2026-05-08 00:19 42.31559 -76.20245 5232 ft 178 kts 327°
2026-05-08 00:19 42.32427 -76.21382 5134 ft 175 kts 310°
2026-05-08 00:19 42.33225 -76.22616 5020 ft 174 kts 310°
2026-05-08 00:19 42.34042 -76.23818 4902 ft 174 kts 313°
2026-05-08 00:20 42.34871 -76.25017 4801 ft 174 kts 312°
2026-05-08 00:20 42.35701 -76.26227 4697 ft 174 kts 312°
2026-05-08 00:20 42.36521 -76.27423 4599 ft 174 kts 312°
2026-05-08 00:20 42.37337 -76.28615 4502 ft 174 kts 312°
2026-05-08 00:21 42.38160 -76.29818 4299 ft 175 kts 313°
2026-05-08 00:21 42.38994 -76.31039 4068 ft 176 kts 313°
2026-05-08 00:21 42.39830 -76.32259 3820 ft 178 kts 314°
2026-05-08 00:21 42.40665 -76.33476 3561 ft 173 kts 313°
2026-05-08 00:22 42.41461 -76.34641 3311 ft 166 kts 313°
2026-05-08 00:22 42.42231 -76.35767 3068 ft 163 kts 313°
2026-05-08 00:22 42.42974 -76.36855 2827 ft 146 kts 313°
2026-05-08 00:22 42.43631 -76.37818 2627 ft 132 kts 313°
2026-05-08 00:23 42.44255 -76.38732 2435 ft 132 kts 313°
2026-05-08 00:23 42.44876 -76.39641 2247 ft 130 kts 313°
2026-05-08 00:23 42.45476 -76.40522 2070 ft 128 kts 312°
2026-05-08 00:23 42.46080 -76.41409 1886 ft 130 kts 312°
2026-05-08 00:24 42.46695 -76.42317 1698 ft 129 kts 312°
2026-05-08 00:24 42.47302 -76.43204 1519 ft 130 kts 312°
2026-05-08 00:24 42.47921 -76.44118 1325 ft 135 kts 313°
2026-05-08 00:24 42.48563 -76.45053 1109 ft 129 kts 313°
2026-05-08 00:25 42.49115 -76.45867 1087 ft 104 kts 313°
2026-05-08 00:25 42.49459 -76.46372 1085 ft 35 kts 311°
2026-05-08 00:25 42.49540 -76.46524 1083 ft 16 kts 263°
2026-05-08 00:25 42.49472 -76.46596 1078 ft 11 kts 165°
2026-05-08 00:26 42.49405 -76.46515 1078 ft 14 kts 132°
2026-05-08 00:26 42.49338 -76.46415 1080 ft 12 kts 133°
2026-05-08 00:26 42.49278 -76.46327 1081 ft 10 kts 132°
2026-05-08 00:26 42.49231 -76.46313 1079 ft 9 kts 221°
2026-05-08 00:27 42.49208 -76.46356 1077 ft 2 kts 259°
2026-05-08 00:27 42.49188 -76.46378 1076 ft 6 kts 161°
2026-05-08 00:27 42.49167 -76.46365 1075 ft 0 kts 153°